Home   Weather   Pago Pago   Past weeks

Flag for American Samoa Past Weather in Pago Pago, American Samoa — Yesterday and Last 2 Weeks

Now
80 °F

Partly cloudy.


Feels Like: 84 °F
Forecast: 80 / 85 °F
Wind: 18 mph from Southeast

Location: Pago Pago / Int. Airp.

Current Time: Oct 17, 2018 at 2:57:51 am

Latest Report: Oct 17, 2018 at 1:50 am


Visibility: 10 mi

Pressure: 29.89 "Hg

Humidity: 86%

Dew Point: 75 °F

Location of Pago PagoLocation

Past Weather in Pago Pago — Graph

°F

Pago Pago Temperature Yesterday

Maximum temperature yesterday: 87 °F (at 11:52 am)
Minimum temperature yesterday: 79 °F (at 5:50 pm)
Average temperature yesterday: 83 °F

High & Low Weather Summary for the Past Weeks

 TemperatureHumidityPressure
High88 °F (Oct 12, 12:50 pm)94% (Oct 9, 1:50 am)30.00 "Hg (Oct 9, 1:50 am)
Low76 °F (Oct 10, 10:52 pm)68% (Oct 6, 12:50 pm)29.80 "Hg (Oct 8, 3:50 pm)
Average82 °F81%29.90 "Hg
* Reported Oct 2 12:51 am — Oct 17 12:50 am, Pago Pago. Weather by CustomWeather, © 2018

Note: Actual official high and low records may vary slightly from our data, if they occured in-between our weather recording intervals... More about our weather records

Advertising

Pago Pago Weather History for the Previous 24 Hours

Scroll right to see more
 ConditionsComfort  
Time TempWeatherWind HumidityBarometerVisibility
12:50 am
Wed, Oct 17
80 °FOvercast.15 mph87%29.90 "Hg9 mi
11:50 pm
Tue, Oct 16
79 °FOvercast.17 mph89%29.91 "Hg9 mi
10:50 pm79 °FSprinkles. Partly cloudy.14 mph89%29.92 "Hg9 mi
9:52 pm81 °FPartly cloudy.15 mph84%29.91 "Hg10 mi
8:50 pm81 °FPartly cloudy.16 mph85%29.90 "Hg10 mi
7:50 pm81 °FPartly cloudy.17 mph84%29.89 "Hg10 mi
6:50 pm81 °FPartly cloudy.14 mph84%29.87 "Hg10 mi
5:50 pm79 °FSprinkles. Broken clouds.13 mph84%29.86 "Hg10 mi
4:50 pm84 °FBroken clouds.16 mph79%29.85 "Hg12 mi
3:50 pm86 °FScattered clouds.16 mph74%29.85 "Hg12 mi
2:51 pm87 °FBroken clouds.16 mph73%29.85 "Hg12 mi
12:50 pm86 °FBroken clouds.20 mph72%29.88 "Hg12 mi
11:52 am87 °FScattered clouds.16 mph73%29.90 "Hg12 mi
10:50 am87 °FScattered clouds.18 mph72%29.93 "Hg12 mi
9:50 am86 °FScattered clouds.20 mph74%29.93 "Hg12 mi
8:50 am84 °FBroken clouds.16 mph79%29.93 "Hg12 mi
7:50 am83 °FBroken clouds.18 mph79%29.93 "Hg12 mi
6:50 am81 °FBroken clouds.15 mph84%29.90 "Hg12 mi
4:50 am81 °FPartly cloudy.18 mph82%29.88 "Hg10 mi
3:50 am81 °FPartly cloudy.17 mph83%29.87 "Hg10 mi
2:50 am81 °FPartly cloudy.18 mph83%29.86 "Hg10 mi
Weather by CustomWeather, © 2018

See weather overview